Location: Binningen
(47.7924°N, 8.7261°E)
Time: 16:53:31
(UTC+00:00)

Daily predictions for brighter satellites

Satellite Brightness Start Highest point End
(mag) Time Altitude Azimuth Time Altitude Azimuth Time Altitude Azimuth
Meteor 1-14 Rocket 4.3 19:27:22 10° N 19:33:13 80° ENE 19:38:53 10° SSE
SJ 16-02 1.6 19:30:40 10° S 19:34:57 51° ESE 19:39:16 10° NNE
Cosmos 1666 Rocket 4.2 19:30:42 10° NNW 19:35:01 58° W 19:39:15 10° S
USA 267 4.2 19:32:31 10° SSE 19:38:38 41° SW 19:44:47 10° WNW
Cosmos 1151 Rocket 3.4 19:36:05 10° SSW 19:40:27 73° W 19:44:51 10° N
Cosmos 1500 3.2 19:40:25 10° N 19:44:11 82° W 19:47:54 10° S
USA 307 3.9 19:40:31 10° WNW 19:44:29 38° SW 19:48:26 10° SSE
ERS-2 3.9 19:44:37 10° N 19:47:59 36° WNW 19:51:20 10° SW
SWARM A 4.5 19:45:18 10° N 19:48:34 50° E 19:51:47 10° SSE
Cosmos 1782 3.7 19:46:09 10° SSW 19:50:02 52° WNW 19:53:56 10° N
Resurs 1-3 4.0 19:46:00 10° S 19:50:22 66° WSW 19:54:45 10° NNW
Landsat 7 4.0 19:45:47 10° SSE 19:50:28 61° ENE 19:55:10 10° N
ERBS 3.3 19:49:44 10° NW 19:52:52 38° NNE 19:56:00 10° E
ERS-1 Rocket 4.3 19:49:34 10° ESE 19:53:39 26° ENE 19:57:46 10° N
Meteor 1-5 Rocket 4.1 19:50:03 10° N 19:55:25 86° E 20:00:43 10° S
SPOT 5 4.3 19:51:43 10° ESE 19:56:05 28° ENE 20:00:34 10° N
MetOp-B 4.3 19:50:57 10° SSE 19:56:13 63° ENE 20:01:31 10° N
OBJECT-B 3.2 19:54:48 10° SSW 19:57:23 22° W 20:00:00 10° NW
USA 308 4.2 19:54:32 10° WNW 19:58:19 31° SW 20:02:06 10° SSE
ARIANE 5 R/B 3.5 19:55:47 11° SE 19:59:29 33° ENE 20:03:23 10° N
USA 245 3.4 20:00:07 15° ESE 20:01:33 26° ENE 20:03:43 10° N
SPOT 1/Viking Rocket 3.8 19:56:36 10° SSE 20:01:40 56° ENE 20:06:44 10° N
Spot 2 Rocket 4.1 19:57:54 11° SE 20:02:27 43° ENE 20:07:12 10° N
Cosmos 2297 4.4 19:58:40 10° SSE 20:03:42 34° ESE 20:08:45 10° NE
Gbstr 26 Del rocket 4.4 19:56:01 10° WNW 20:03:58 82° NNE 20:10:45 10° ESE
ISS -3.8 20:04:46 10° SW 20:08:06 62° SSE 20:11:27 10° ENE
Meteor 1-11 Rocket 3.9 20:07:19 10° N 20:13:16 68° ENE 20:18:41 12° SSE
Cosmos 1340 Rocket 3.8 20:12:16 10° N 20:16:01 33° ENE 20:18:40 16° SE
Cosmos 2082 Rocket 2.4 20:10:49 10° NNW 20:16:26 68° WSW 20:21:44 11° SSE
Cosmos 1680 Rocket 3.6 20:12:22 10° NNW 20:17:42 70° ENE 20:22:04 15° SSE
Cosmos 2154 Rocket 4.2 20:11:48 10° N 20:18:03 59° ENE 20:23:27 14° SSE
SPOT 3 Rocket 3.8 20:13:16 10° S 20:18:24 70° WSW 20:23:34 10° NNW
Cosmos 1943 Rocket 2.9 20:15:11 10° SSE 20:20:10 34° ESE 20:25:09 10° NE
CZ-4C R/B 4.2 20:14:34 10° NW 20:21:10 35° WSW 20:28:33 10° S
Nadezhda 1 Rocket 4.2 20:15:25 10° SSE 20:21:29 55° E 20:27:30 10° NNE
Cosmos 2074 Rocket 4.1 20:15:38 10° N 20:21:59 90° NNE 20:28:18 10° S
Cosmos 1461 3.8 20:18:01 10° S 20:22:13 33° ESE 20:26:21 10° NE
Cosmos 2184 Rocket 4.0 20:18:08 10° N 20:24:22 90° W 20:30:30 10° S
Cosmos 44 3.5 20:24:26 10° NW 20:29:54 81° SW 20:33:48 18° SSE
BREEZE-M R/B 2.3 20:29:12 10° WNW 20:31:37 54° N 20:33:56 12° E
NOSS 3-4 (A) 4.4 20:25:54 10° NW 20:32:40 52° WSW 20:39:25 13° SSE
NOSS 3-4 (C) 4.4 20:26:00 10° NW 20:32:47 52° WSW 20:39:31 13° SSE
Cosmos 1544 3.4 20:29:47 10° N 20:33:19 49° ENE 20:35:19 23° SE
Iridium 4 Rocket 3.9 20:29:41 10° S 20:35:34 87° W 20:41:30 10° N
Cosmos 1271 Rocket 3.4 20:32:31 10° SSW 20:36:28 58° WNW 20:40:26 10° N
Meteor 1-10 Rocket 4.5 20:31:58 10° SSW 20:37:35 74° WNW 20:43:20 10° N
Cosmos 967 Rocket 4.4 20:32:03 10° SSW 20:38:14 64° ESE 20:44:27 10° NE
Cosmos 1536 2.7 20:37:42 10° N 20:41:46 86° E 20:44:24 21° S
Cosmos 2278 Rocket 3.7 20:36:29 10° WSW 20:41:47 40° NW 20:47:07 10° NNE
Cosmos 1869 Rocket 3.5 20:39:00 10° N 20:43:22 82° W 20:46:32 18° S
Cosmos 990 Rocket 4.0 20:39:21 10° SSW 20:44:35 87° ESE 20:49:53 10° NNE
Cosmos 2369 Rocket 3.1 20:42:46 20° SE 20:45:23 29° ESE 20:50:10 10° NE
Cosmos 2228 Rocket 3.2 20:40:58 10° SSW 20:45:25 79° W 20:49:57 10° N
ATLAS 2AS CENTAUR R/B 2.9 20:38:49 10° NW 20:46:07 68° WSW 20:51:06 19° SSE
Cosmos 1610 Rocket 4.4 20:40:16 10° N 20:46:27 89° E 20:51:24 17° S
Cosmos 1666 4.4 20:45:25 10° NNW 20:48:39 28° W 20:51:51 10° SSW
Resurs 01 Rocket 3.3 20:46:02 10° SSW 20:49:53 29° W 20:53:45 10° NW
Cosmos 1898 Rocket 3.5 20:45:29 10° SSW 20:50:47 81° ESE 20:56:09 10° NNE
Tianhe-1 2.4 20:54:39 10° WSW 20:56:46 24° SSW 20:56:46 24° SSW
Terra 2.0 20:55:27 25° SE 20:58:08 61° ENE 21:02:51 10° N
Cosmos 1975 4.1 20:56:50 10° NNE 21:00:14 27° ENE 21:01:34 22° ESE
Cosmos 1707 Rocket 3.5 20:58:17 24° S 21:00:52 67° E 21:05:17 10° NNE
CARTOSAT-1 3.8 20:58:59 21° S 21:01:47 64° W 21:06:05 10° NNW
Cosmos 2181 Rocket 4.5 20:58:38 23° SE 21:01:58 42° E 21:07:40 10° NNE
Cosmos 1818 3.7 20:59:05 10° NW 21:04:33 70° WSW 21:07:40 26° SSE
Cosmos 2084 Rocket 4.0 21:02:28 10° NW 21:06:36 48° SW 21:08:37 27° S
JB-3 4.5 21:03:20 10° N 21:07:11 70° WNW 21:10:00 17° SSW
DNEPR-1 R/B 4.0 21:02:45 10° SW 21:08:43 90° WNW 21:13:39 10° NE
SJ 16-02 4.0 21:10:27 10° WSW 21:13:50 21° NW 21:17:13 10° N
RESURS DK-1 3.3 21:10:05 10° NNW 21:14:02 39° NE 21:15:50 25° ESE
Cosmos 2341 Rocket 4.0 21:16:09 10° N 21:22:36 90° E 21:26:26 26° S
Cosmos 1743 3.1 21:19:37 10° NNW 21:23:26 58° W 21:25:04 31° SSW
Cosmos 1733 Rocket 3.0 21:22:45 10° N 21:27:06 86° W 21:28:47 37° S
Cosmos 2218 Rocket 4.1 21:21:17 10° N 21:27:36 68° ENE 21:30:56 30° SSE
Milstar 3 4.5 21:17:38 10° WSW 21:28:29 26° SSW 21:31:31 22° S
ERBS 3.3 21:25:56 10° WNW 21:28:56 32° SW 21:29:01 32° SW
ERS-1 Rocket 3.6 21:29:16 23° SSW 21:32:11 49° W 21:37:05 10° NNW
SPOT 5 3.7 21:30:45 22° SSW 21:33:52 49° W 21:39:05 10° NNW
ARIANE 5 R/B 4.2 21:33:20 16° SW 21:35:58 28° W 21:39:43 10° NW
SL-8 Rocket 4.0 21:32:04 10° N 21:38:26 88° W 21:41:47 30° S
Meteor 1-19 Rocket 4.0 21:35:59 30° S 21:38:44 80° E 21:44:11 10° NNE
Cosmos 1238 Rocket 3.5 21:33:11 10° NNW 21:38:56 77° W 21:41:08 34° S
Meteor 2-4 Rocket 4.0 21:39:42 34° SSE 21:41:48 51° E 21:47:10 10° NNE
Cosmos 1937 Rocket 4.2 21:38:48 10° SW 21:43:49 52° WNW 21:48:55 10° NNE
ISS -2.7 21:41:45 10° W 21:45:01 46° N 21:48:18 10° ENE
Cosmos 1908 Rocket 3.7 21:43:37 10° N 21:48:04 61° ENE 21:49:13 44° SE
Cosmos 1833 4.3 21:45:42 10° NNW 21:51:30 74° ENE 21:53:59 35° SE
Okean 1 4.1 21:55:06 28° SW 21:56:47 47° WNW 22:00:39 10° N
H-2A R/B 4.2 21:53:01 10° N 21:57:04 49° WNW 21:59:11 25° SW
BREEZE-M DEB (TANK) 3.9 21:53:56 10° WNW 21:59:04 40° N 22:00:29 20° ENE
Cosmos 1867 3.5 21:56:30 21° SSW 22:00:14 86° SE 22:05:45 10° NE
Cosmos 1461 4.4 21:56:45 10° WSW 22:01:13 42° NW 22:05:37 10° NNE
Lacrosse 5 2.8 22:02:09 30° ESE 22:02:09 30° ESE 22:05:48 10° ENE
Cosmos 1943 Rocket 3.2 21:58:26 10° SW 22:03:48 44° NW 22:09:09 10° NNE
Cosmos 1048 Rocket 3.9 21:59:09 10° NNW 22:04:29 89° WSW 22:06:10 45° SSE
Cosmos 2242 Rocket 3.6 22:05:59 54° SSE 22:06:48 66° E 22:11:16 10° NNE
Okean 1-7 3.0 22:08:56 57° SE 22:09:30 64° E 22:13:46 10° NNE
Cosmos 1656 Rocket 3.5 22:08:33 35° SSW 22:10:56 83° ESE 22:16:32 10° NNE
ATLAS CENTAUR R/B 1.0 22:11:29 71° SW 22:11:50 86° NW 22:15:40 10° NE
SL-08 R/B 4.5 22:07:37 10° N 22:13:55 84° E 22:16:29 39° SSE
SL-27 R/B 2.4 22:12:24 10° NNW 22:15:31 76° NNW 22:15:31 76° NNW
Meteor 1-13 Rocket 4.5 22:16:23 41° SE 22:17:49 51° E 22:23:08 10° NNE
Cosmos 1703 Rocket 3.4 22:17:22 60° S 22:18:08 81° E 22:22:35 10° N
Cosmos 1782 Rocket 3.5 22:16:19 10° N 22:20:46 73° E 22:21:28 59° SE
Cosmos 1607 4.2 22:22:46 13° SW 22:28:33 74° NW 22:35:05 10° NE
USA 215 4.3 22:22:40 10° E 22:28:47 45° NNE 22:34:56 10° NW
Cosmos 2369 Rocket 2.9 22:24:29 14° SW 22:29:09 51° NW 22:34:41 10° NNE
Cosmos 1934 Rocket 4.4 22:23:56 10° N 22:29:52 49° ENE 22:32:08 34° SE
Cosmos 44 Rocket 3.3 22:30:11 10° NW 22:35:26 77° SW 22:36:33 54° SSE
Terra 3.9 22:34:20 14° WSW 22:36:18 18° W 22:39:31 10° NW
Cosmos 1975 4.3 22:33:16 10° NNW 22:36:38 27° W 22:37:19 25° WSW
Cosmos 2344 4.3 22:28:34 10° NW 22:37:47 88° SW 22:46:11 25° SE
Cosmos 2298 Rocket 4.3 22:36:28 33° SW 22:38:47 66° WNW 22:44:05 10° NNE
Cosmos 494 Rocket 4.1 22:34:27 10° NNW 22:39:33 61° WSW 22:40:39 49° SSW
COBE Rocket 4.2 22:38:52 45° SE 22:40:15 64° ENE 22:45:24 10° N
Cosmos 1821 Rocket 4.0 22:33:58 10° N 22:40:24 82° W 22:42:44 42° S
Thor Agena Rocket 4.4 22:38:16 10° NNE 22:43:06 35° E 22:43:56 33° ESE
Cosmos 724 4.3 22:45:27 38° SSW 22:48:02 82° SE 22:54:20 10° NE
RESURS DK-1 3.9 22:48:29 10° NW 22:51:42 24° WSW 22:51:42 24° WSW
Cosmos 1726 4.3 22:54:17 10° NNE 22:56:40 16° ENE 22:57:19 16° E
NOSS 2-1 (C) 4.2 22:53:13 10° NW 22:58:07 72° SW 22:59:58 46° SSE
Cosmos 1356 Rocket 3.7 22:55:14 10° NNW 22:59:28 57° W 22:59:46 55° WSW
Okean 3 3.4 22:59:12 65° WSW 22:59:35 71° W 23:03:49 10° N
Cosmos 1378 3.5 23:00:27 55° WNW 23:00:27 55° WNW 23:04:08 10° N
Cosmos 2221 Rocket 3.8 23:01:50 56° ESE 23:02:15 59° E 23:06:45 10° NNE
NOSS 2-1 (D) 4.3 23:00:05 10° NW 23:05:00 65° SW 23:06:37 47° S
COSMOS 2487 2.9 23:02:50 10° NNW 23:05:34 55° NNW 23:05:34 55° NNW
Cosmos 1805 3.2 23:03:16 10° N 23:07:04 82° WNW 23:07:04 82° WNW
Cosmos 1535 Rocket 4.5 23:02:03 10° N 23:08:23 84° E 23:10:33 45° SSE
ALOS 2 2.7 23:08:32 56° WSW 23:08:52 58° W 23:13:13 10° NNW
Cosmos 1125 Rocket 4.2 23:07:51 29° WSW 23:10:08 49° WNW 23:15:13 10° NNE
SAR-Lupe-2 3.7 23:07:14 10° NNE 23:10:33 72° NNW 23:10:33 72° NNW
Cosmos 1066 Rocket 4.2 23:09:13 47° SSW 23:10:56 78° WNW 23:16:33 10° N
Nimbus 7 Rocket 4.3 23:09:06 10° NNE 23:15:02 82° ESE 23:16:52 47° S
Cosmos 1300 Rocket 3.5 23:13:58 10° NNW 23:18:19 66° W 23:18:37 64° WSW
Cosmos 2227 Rocket 3.4 23:13:25 10° NNW 23:18:41 38° NE 23:22:33 17° ESE
Cosmos 2297 Rocket 2.9 23:15:17 10° NNW 23:20:48 49° NE 23:23:53 25° ESE
ISS -2.8 23:18:56 10° WNW 23:22:13 47° N 23:22:52 40° NE
Okean 2 4.4 23:22:15 34° E 23:22:24 34° E 23:26:11 10° NNE
COSMOS 2455 2.9 23:16:30 10° NNW 23:22:34 76° NE 23:25:11 36° SE
Meteor 1-15 Rocket 4.4 23:17:41 10° NNW 23:23:22 66° W 23:24:55 47° SSW
Cosmos 1766 3.3 23:23:17 10° NNW 23:27:05 72° WNW 23:27:05 72° WNW
EO 1 Delta rocket 4.4 23:30:18 45° SSE 23:32:08 78° ENE 23:38:54 10° N
Meteor 2-10 4.1 23:28:59 10° N 23:34:17 67° ENE 23:35:40 47° SE
USA 276 4.2 23:39:54 21° ENE 23:39:54 21° ENE 23:41:07 10° ENE
Sich 1 Rocket 4.4 23:34:09 10° NNW 23:38:20 37° W 23:38:42 36° WSW
SL-16 R/B 4.3 23:35:59 10° ESE 23:41:01 26° ENE 23:46:03 10° N
Cosmos 1953 4.5 23:40:45 10° NNE 23:43:41 19° ENE 23:45:19 15° E
Lacrosse 5 2.2 23:41:17 27° WSW 23:44:01 64° NNW 23:49:07 10° NE
Cosmos 1470 2.9 23:42:41 10° N 23:46:37 65° E 23:46:48 63° E
Cosmos 1605 Rocket 4.0 23:40:27 10° NNW 23:46:43 73° W 23:48:50 44° SSW
SeaSat 1 2.9 23:43:22 10° NE 23:48:07 45° ESE 23:48:47 43° SE
Okean 2 Rocket 3.7 23:44:07 10° NNW 23:48:16 41° W 23:48:30 41° W
Cosmos 2151 Rocket 3.9 23:46:13 10° NNW 23:50:36 50° W 23:50:56 49° WSW
ATLAS CENTAUR R/B 3.9 23:48:56 10° WNW 23:51:20 16° NNW 23:53:47 10° N
Resurs 1-4 Rocket 4.0 23:50:37 10° NE 23:54:21 19° E 23:56:32 15° ESE
